Location: Biltmore Gardens
(41.6070°N, 83.4666°W)
Time: 14:48:55
(UTC+00:00)

Cosmos 1975 - Pass Details

Date: 14 July 2020
Orbit: 542 x 561 km, 82.5° (Epoch: 12 August)

Event Time Altitude Azimuth Distance (km) Brightness Sun altitude
Exits shadow 08:33:31 10° 165° (SSE) 1,797 5.1 -15.1°
Maximum altitude 08:37:16 43° 93° (E) 769 3.8 -14.6°
Drops below altitude 10° 08:41:03 10° 21° (NNE) 1,817 6.6 -14.2°
Sets 08:43:17 0° 15° (NNE) 2,714 7.5 -13.9°
